Stations météo

réclame
Mon MeteoGroup
Rostock-Warnemünde, Allemagne (10170): Température de l'air & dewpoint: 13.07.2018 19:00:00 - 19.07.2018 19:00:00 (CEST)Rostock-Warnemünde, Allemagne (10170): Température de l'air 5cm & Température de l'air -5cm: 13.07.2018 19:00:00 - 19.07.2018 19:00:00 (CEST)Rostock-Warnemünde, Allemagne (10170): Température de l'air -20cm & Température de l'air -100cm: 13.07.2018 19:00:00 - 19.07.2018 19:00:00 (CEST)Rostock-Warnemünde, Allemagne (10170): Vitesse du vent & gusts: 13.07.2018 19:00:00 - 19.07.2018 19:00:00 (CEST)Rostock-Warnemünde, Allemagne (10170): Direction du vent: 13.07.2018 19:00:00 - 19.07.2018 19:00:00 (CEST)Rostock-Warnemünde, Allemagne (10170): reduced air pressure: 13.07.2018 19:00:00 - 19.07.2018 19:00:00 (CEST)Rostock-Warnemünde, Allemagne (10170): visibility: 13.07.2018 19:00:00 - 19.07.2018 19:00:00 (CEST)Rostock-Warnemünde, Allemagne (10170): Ensoleillement: 13.07.2018 19:00:00 - 19.07.2018 19:00:00 (CEST)Rostock-Warnemünde, Allemagne (10170): Quantités de précipitations: 13.07.2018 19:00:00 - 19.07.2018 19:00:00 (CEST)
Date & Time tt [°C] td [°C] tt 5cm [°C] tt -5cm [°C] tt -20cm [°C] tt -100cm [°C] ff [km/h] ff [knt] fx [km/h] fx [knt] dd ppp [hPa] vv [km] sd [min] rr [mm]
19.07.2018 19:00:00 22,1 12,4 23,8 31,6 25,9 20,3 12 6 20 11 WNW 1016,8 37 60 0,0
19.07.2018 18:00:00 22,0 12,4 24,7 33,5 25,6 20,3 16 9 24 13 NW 1017,1 32 60 0,0
19.07.2018 17:00:00 22,0 12,9 25,3 34,7 25,3 20,3 21 11 31 17 NW 1017,5 15 60 0,0
19.07.2018 16:00:00 21,9 12,8 25,9 35,1 24,9 20,3 26 14 37 20 NW 1017,8 21 60 0,0
19.07.2018 15:00:00 21,6 12,5 26,1 34,5 24,4 20,3 29 16 39 21 NW 1018,3 10 60 0,0
19.07.2018 14:00:00 21,2 13,2 25,8 33,2 23,9 20,3 32 17 39 21 WNW 1018,3 7 60 0,0
19.07.2018 13:00:00 21,0 13,5 26,4 31,6 23,5 20,3 28 15 35 19 WNW 1018,4 11 60 0,0
19.07.2018 12:00:00 21,0 14,1 26,2 29,1 23,1 20,3 29 15 34 19 WNW 1018,3 8 60 0,0
19.07.2018 11:00:00 20,5 13,7 25,2 27,2 22,8 20,3 26 14 34 18 NW 1018,0 14 60 0,0
19.07.2018 10:00:00 19,3 15,3 22,8 25,5 22,7 20,3 26 14 32 17 NW 1018,1 23 60 0,0
19.07.2018 09:00:00 18,9 14,5 22,1 23,6 22,6 20,2 24 13 33 18 NNW 1017,8 30 60 0,0
19.07.2018 08:00:00 18,5 14,2 20,4 21,4 22,8 20,2 27 14 39 21 NW 1017,6 23 60 0,0
19.07.2018 07:00:00 18,5 13,6 18,7 19,8 22,9 20,2 32 17 40 22 NNW 1017,4 24 38 0,0
19.07.2018 06:00:00 18,4 15,4 17,8 19,7 23,1 20,2 32 17 39 21 NNW 1016,8 30 0 0,0
19.07.2018 05:00:00 19,0 15,9 18,5 20,0 23,4 20,2 33 18 40 22 NNW 1016,6 29 0 0,0
19.07.2018 04:00:00 19,5 15,5 18,7 20,2 23,6 20,2 35 19 41 22 NNW 1016,4 31 0 0,0
19.07.2018 03:00:00 20,1 15,8 19,5 20,8 23,8 20,2 33 18 40 22 NNW 1016,4 31 0 0,0
19.07.2018 02:00:00 20,4 16,6 19,7 20,9 24,0 20,2 30 16 38 21 NNW 1016,3 26 0 0,0
19.07.2018 01:00:00 20,3 17,2 19,7 21,3 24,3 20,2 28 15 41 22 NW 1016,3 24 0 0,0
19.07.2018 00:00:00 20,4 17,1 19,7 21,6 24,6 20,1 36 19 46 25 NW 1015,9 27 0 0,0
18.07.2018 23:00:00 20,7 17,0 19,8 22,2 24,9 20,1 36 19 44 24 WNW 1015,7 30 0 0,0
18.07.2018 22:00:00 21,1 16,7 20,3 23,5 25,1 20,1 34 18 43 23 WNW 1015,5 28 0 0,0
18.07.2018 21:00:00 21,2 17,3 21,1 25,6 25,2 20,1 29 16 37 20 WNW 1015,5 28 60 0,0
18.07.2018 20:00:00 21,8 17,2 22,8 27,7 25,2 20,1 31 17 40 21 WNW 1015,3 29 60 0,0
18.07.2018 19:00:00 22,0 17,3 23,5 29,3 25,1 20,1 32 17 44 24 WNW 1015,3 19 60 0,0
18.07.2018 18:00:00 21,9 17,1 23,9 30,6 24,9 20,1 33 18 42 23 WNW 1015,3 17 60 0,0
18.07.2018 17:00:00 22,3 17,0 25,2 30,0 24,8 20,1 34 18 44 24 WNW 1015,2 12 35 0,0
18.07.2018 16:00:00 21,5 16,4 23,9 30,9 24,5 20,1 34 18 44 24 W 1015,4 19 10 0,0
18.07.2018 15:00:00 22,3 16,8 27,8 32,5 24,1 20,0 35 19 45 25 W 1015,4 13 60 0,0
18.07.2018 14:00:00 21,6 16,7 26,3 29,0 23,9 20,0 36 20 44 24 WNW 1015,5 12 28 0,0
18.07.2018 13:00:00 20,1 16,7 22,2 27,9 23,7 20,0 34 18 42 23 WNW 1015,5 13 22 0,0
18.07.2018 12:00:00 20,6 16,4 24,6 28,0 23,5 20,0 31 17 42 23 W 1015,1 18 40 0,0
18.07.2018 11:00:00 19,9 16,2 23,0 25,8 23,4 20,0 36 19 43 23 WNW 1014,9 15 17 0,0
18.07.2018 10:00:00 19,8 16,2 22,8 24,3 23,4 20,0 32 17 41 22 WNW 1014,7 19 23 0,0
18.07.2018 09:00:00 19,3 16,4 20,4 22,6 23,5 19,9 33 18 40 22 WNW 1014,5 17 0 0,0
18.07.2018 08:00:00 19,2 17,3 19,7 21,9 23,6 19,9 35 19 40 22 WNW 1014,2 12 0 0,0
18.07.2018 07:00:00 19,1 17,1 19,3 21,5 23,8 19,9 35 19 41 22 WNW 1013,8 10 0 0,0
18.07.2018 06:00:00 19,8 18,4 19,6 21,4 24,0 19,9 31 17 38 21 WNW 1013,5 7 0 0,0
18.07.2018 05:00:00 20,5 17,9 19,6 21,5 24,3 19,9 14 7 17 9 NW 1013,4 25 0 0,0
18.07.2018 04:00:00 20,5 17,4 19,7 22,0 24,5 19,8 11 6 16 8 N 1013,4 25 0 0,0
18.07.2018 03:00:00 20,8 18,0 19,9 22,2 24,7 19,8 11 6 19 10 NW 1013,6 21 0 0,0
18.07.2018 02:00:00 21,2 18,1 20,6 22,8 25,0 19,8 10 5 13 7 N 1013,4 20 0 0,0
18.07.2018 01:00:00 21,4 18,1 20,8 23,2 25,3 19,8 8 5 14 8 N 1013,0 22 0 0,0
18.07.2018 00:00:00 21,7 18,4 21,0 23,6 25,6 19,8 11 6 15 8 N 1013,1 22 0 0,0
17.07.2018 23:00:00 21,5 17,8 20,5 24,1 25,9 19,8 4 2 11 6 NNW 1012,8 25 0 0,0
17.07.2018 22:00:00 21,8 17,4 20,9 25,2 26,2 19,8 8 4 16 9 NNE 1012,6 22 21 0,0
17.07.2018 21:00:00 22,4 17,0 22,3 27,3 26,4 19,8 10 5 17 9 NNE 1012,3 24 34 0,0
17.07.2018 20:00:00 22,5 17,7 23,0 29,7 26,5 19,8 11 6 16 9 NE 1012,2 25 42 0,0
17.07.2018 19:00:00 22,9 18,7 25,6 32,7 26,3 19,8 10 5 16 8 N 1012,5 20 60 0,0
17.07.2018 18:00:00 23,3 18,2 26,0 35,1 26,1 19,7 12 6 18 10 N 1012,6 17 60 0,0
17.07.2018 17:00:00 24,3 17,0 27,8 36,2 25,6 19,7 11 6 16 8 N 1012,7 20 60 0,0
17.07.2018 16:00:00 23,8 16,7 29,9 38,7 25,0 19,7 10 5 13 7 N 1012,8 20 60 0,0
17.07.2018 15:00:00 23,5 17,3 29,9 37,2 24,4 19,7 9 5 14 8 NNW 1012,9 21 60 0,0
17.07.2018 14:00:00 22,9 16,8 29,8 35,2 23,7 19,7 9 5 12 7 NW 1012,9 14 60 0,0
17.07.2018 13:00:00 22,5 17,4 30,1 32,0 23,2 19,7 7 4 11 6 NNW 1013,1 17 53 0,0
17.07.2018 12:00:00 22,1 17,5 28,3 29,5 22,7 19,7 7 4 10 5 NNW 1013,1 14 57 0,0
17.07.2018 11:00:00 21,7 17,4 26,3 28,4 22,3 19,7 6 4 11 6 NW 1013,1 19 59 0,0
17.07.2018 10:00:00 21,5 18,4 26,8 26,0 22,1 19,6 8 4 13 7 NW 1013,2 20 60 0,0
17.07.2018 09:00:00 20,7 18,8 23,7 24,1 22,0 19,6 10 5 14 7 WNW 1013,0 12 34 0,0
17.07.2018 08:00:00 20,1 18,5 20,4 21,6 22,0 19,6 6 3 9 5 WNW 1012,9 8 56 0,0
17.07.2018 07:00:00 18,7 17,3 18,7 19,1 22,2 19,6 4 2 11 6 WNW 1012,5 8 9 0,0
17.07.2018 06:00:00 17,3 16,9 16,3 17,6 22,5 19,6 9 5 13 7 WSW 1012,6 6 0 0,0
17.07.2018 05:00:00 16,9 16,5 14,2 17,6 22,8 19,6 6 4 8 5 W 1012,6 6 0 0,0
17.07.2018 04:00:00 18,3 18,1 13,7 18,1 23,2 19,6 2 1 6 4 WNW 1012,8 3,9 0 0,0
17.07.2018 03:00:00 19,3 19,0 13,9 18,9 23,5 19,6 5 3 10 5 NNE 1013,1 4,2 0 0,0
17.07.2018 02:00:00 19,3 18,9 17,2 19,3 23,9 19,5 9 5 10 5 NNE 1013,4 3,9 0 0,0
17.07.2018 01:00:00 19,4 18,9 16,2 20,3 24,3 19,5 5 3 13 7 NE 1013,5 6 0 0,0
17.07.2018 00:00:00 19,8 18,5 17,1 21,0 24,7 19,5 7 4 11 6 N 1013,5 8 0 0,0
16.07.2018 23:00:00 20,0 18,5 18,0 22,2 25,1 19,5 9 5 11 6 NNE 1013,5 12 0 0,0
16.07.2018 22:00:00 20,5 18,4 18,6 24,0 25,4 19,5 8 4 9 5 NNW 1013,5 17 26 0,0
16.07.2018 21:00:00 21,0 18,4 20,5 26,6 25,6 19,5 7 4 11 6 NW 1013,2 16 60 0,0
16.07.2018 20:00:00 21,5 18,3 22,7 29,5 25,6 19,5 8 4 11 6 NNW 1013,2 20 60 0,0
16.07.2018 19:00:00 21,7 17,5 24,1 32,0 25,4 19,5 9 5 13 7 NW 1013,3 20 60 0,0
16.07.2018 18:00:00 22,0 17,0 25,5 34,1 25,1 19,5 10 6 14 8 NW 1013,4 21 60 0,0
16.07.2018 17:00:00 22,4 17,0 26,7 35,6 24,6 19,5 11 6 16 9 N 1013,9 19 60 0,0
16.07.2018 16:00:00 21,7 16,5 26,7 36,0 24,0 19,5 12 7 15 8 N 1014,2 13 60 0,0
16.07.2018 15:00:00 21,1 16,5 27,2 35,2 23,4 19,5 10 6 14 8 NW 1014,9 9 60 0,0
16.07.2018 14:00:00 21,2 16,7 27,7 33,2 22,8 19,5 12 6 15 8 NNW 1015,3 11 60 0,0
16.07.2018 13:00:00 20,5 16,7 25,4 31,0 22,2 19,5 10 5 14 8 NNW 1015,6 12 60 0,0
16.07.2018 12:00:00 20,2 16,6 26,8 28,3 21,7 19,5 9 5 16 9 N 1015,7 11 60 0,0
16.07.2018 11:00:00 20,2 16,7 25,6 26,6 21,2 19,4 12 7 18 10 N 1015,7 18 60 0,0
16.07.2018 10:00:00 19,8 16,2 24,1 25,1 20,9 19,4 15 8 18 10 N 1015,7 17 60 0,0
16.07.2018 09:00:00 19,6 15,9 23,5 22,7 20,8 19,4 14 8 17 9 N 1015,8 24 60 0,0
16.07.2018 08:00:00 18,8 15,8 21,4 19,3 20,9 19,4 4 2 8 4 N 1016,0 14 53 0,0
16.07.2018 07:00:00 16,4 15,5 13,1 16,5 21,1 19,4 3 2 6 4 N 1016,1 12 0 0,0
16.07.2018 06:00:00 16,1 15,2 14,5 16,5 21,4 19,4 4 2 6 4 SW 1016,2 8 28 0,0
16.07.2018 05:00:00 16,4 15,4 11,9 16,8 21,7 19,4 6 3 10 6 WNW 1016,1 14 0 0,0
16.07.2018 04:00:00 17,3 16,2 14,8 17,4 22,1 19,4 8 5 13 7 W 1016,3 15 0 0,0
16.07.2018 03:00:00 17,5 15,6 15,2 17,7 22,4 19,4 10 5 13 7 W 1016,4 16 0 0,0
16.07.2018 02:00:00 17,8 15,2 14,8 17,9 22,8 19,4 8 4 10 6 W 1016,6 19 0 0,0
16.07.2018 01:00:00 17,1 14,2 12,1 18,7 23,2 19,4 4 2 11 6 W 1016,8 22 0 0,0
16.07.2018 00:00:00 17,9 13,4 15,2 19,7 23,7 19,4 6 4 12 7 WSW 1016,7 25 0 0,0
15.07.2018 23:00:00 18,6 13,4 16,8 20,9 24,1 19,4 7 4 13 7 SW 1016,7 26 0 0,0
15.07.2018 22:00:00 19,4 13,6 17,5 22,6 24,4 19,4 6 4 13 7 SW 1016,7 28 26 0,0
15.07.2018 21:00:00 20,0 15,5 19,5 25,3 24,6 19,4 8 4 13 7 W 1016,5 32 60 0,0
15.07.2018 20:00:00 20,5 15,8 21,6 28,2 24,6 19,4 9 5 14 8 W 1016,5 28 60 0,0
15.07.2018 19:00:00 20,3 15,2 22,8 30,8 24,4 19,4 9 5 13 7 WNW 1016,7 36 60 0,0
15.07.2018 18:00:00 20,4 15,2 24,0 33,0 24,0 19,4 9 5 13 7 WNW 1017,3 37 60 0,0
15.07.2018 17:00:00 20,4 15,2 24,9 34,5 23,5 19,4 8 5 13 7 WNW 1017,7 15 60 0,0
15.07.2018 16:00:00 20,3 14,1 26,1 34,7 22,9 19,4 8 5 16 9 WNW 1018,1 17 60 0,0
15.07.2018 15:00:00 19,4 13,6 26,0 33,9 22,2 19,4 11 6 17 9 WNW 1018,3 14 60 0,0
15.07.2018 14:00:00 18,9 13,9 26,0 32,1 21,5 19,4 10 5 17 9 WNW 1018,6 10 60 0,0
15.07.2018 13:00:00 18,7 13,7 26,1 29,3 20,9 19,4 11 6 16 9 WNW 1018,9 15 56 0,0
15.07.2018 12:00:00 17,9 13,3 23,7 26,1 20,5 19,4 11 6 24 13 WNW 1019,0 20 21 0,0
15.07.2018 11:00:00 17,4 13,8 21,3 24,3 20,2 19,4 16 9 21 12 NNW 1019,0 23 14 0,0
15.07.2018 10:00:00 17,6 14,0 20,7 22,9 20,0 19,4 14 7 19 10 NW 1018,8 31 8 0,0
15.07.2018 09:00:00 17,9 13,8 22,3 21,6 19,8 19,4 14 8 19 10 NW 1018,6 37 59 0,0
15.07.2018 08:00:00 17,3 13,6 20,0 19,0 19,9 19,4 14 8 19 11 NW 1018,5 36 48 0,0
15.07.2018 07:00:00 16,8 13,8 17,9 17,3 20,0 19,4 13 7 23 12 NW 1018,1 41 60 0,0
15.07.2018 06:00:00 16,5 14,1 15,6 16,5 20,2 19,4 19 11 27 14 NNW 1017,9 25 24 0,0
15.07.2018 05:00:00 16,8 14,1 15,5 16,7 20,4 19,4 24 13 29 16 NNW 1017,8 29 0 0,0
15.07.2018 04:00:00 17,0 14,2 15,9 17,1 20,6 19,4 26 14 31 17 NW 1017,9 29 0 0,0
15.07.2018 03:00:00 17,5 14,4 16,2 17,1 20,9 19,4 27 14 32 17 NW 1017,7 31 0 0,0
15.07.2018 02:00:00 17,2 14,4 15,8 17,3 21,1 19,4 27 15 34 19 WNW 1017,9 33 0 0,0
15.07.2018 01:00:00 17,6 13,2 16,1 17,6 21,4 19,4 27 14 32 17 WNW 1018,1 32 0 0,0
15.07.2018 00:00:00 17,7 12,8 16,3 18,0 21,7 19,4 24 13 31 17 WNW 1018,2 35 0 0,0
14.07.2018 23:00:00 17,8 12,9 16,2 18,7 22,1 19,4 22 12 29 16 WNW 1018,3 38 0 0,0
14.07.2018 22:00:00 17,7 13,0 16,3 20,0 22,3 19,4 21 12 28 15 WNW 1018,3 60 29 0,0
14.07.2018 21:00:00 18,1 13,4 17,4 22,2 22,4 19,4 18 10 23 12 NW 1018,1 42 60 0,0
14.07.2018 20:00:00 18,7 13,0 19,4 24,5 22,3 19,4 18 10 24 13 WNW 1018,4 57 60 0,0
14.07.2018 19:00:00 18,7 12,5 20,8 26,3 22,1 19,4 13 7 23 13 WNW 1018,6 46 60 0,0
14.07.2018 18:00:00 18,5 11,7 21,1 26,4 21,9 19,4 17 9 24 13 WNW 1018,7 45 34 0,0
14.07.2018 17:00:00 18,1 11,9 21,2 26,1 21,7 19,4 19 10 28 15 WNW 1019,2 38 2 0,0
14.07.2018 16:00:00 18,0 12,2 21,8 26,3 21,5 19,4 21 11 31 17 NW 1019,7 37 8 0,0
14.07.2018 15:00:00 17,9 12,0 21,3 24,8 21,3 19,4 20 11 34 18 WNW 1019,9 37 0 0,0
14.07.2018 14:00:00 17,4 11,9 19,6 23,9 21,1 19,4 29 16 35 19 WNW 1020,2 40 0 0,0
14.07.2018 13:00:00 17,4 11,7 20,3 24,7 20,8 19,4 27 15 39 21 WNW 1020,1 40 1 0,0
14.07.2018 12:00:00 17,3 11,8 20,1 23,1 20,7 19,3 28 15 36 19 WNW 1020,1 26 3 0,0
14.07.2018 11:00:00 16,7 12,1 18,7 21,4 20,6 19,3 28 15 35 19 WNW 1020,0 30 0 0,0
14.07.2018 10:00:00 16,5 12,3 17,7 20,4 20,6 19,3 27 15 34 19 WNW 1019,8 39 0 0,0
14.07.2018 09:00:00 16,2 12,2 17,3 19,6 20,6 19,3 28 15 40 21 WNW 1019,7 39 0 0,0
14.07.2018 08:00:00 15,8 12,5 16,5 18,8 20,8 19,3 27 15 39 21 WNW 1019,1 36 0 0,0
14.07.2018 07:00:00 15,8 12,6 16,0 18,4 20,9 19,3 29 15 39 21 NW 1018,9 30 0 0,0
14.07.2018 06:00:00 15,7 12,5 15,8 18,1 21,1 19,3 25 14 37 20 NW 1018,9 29 0 0,0
14.07.2018 05:00:00 16,1 13,2 16,0 18,1 21,4 19,3 28 15 39 21 WNW 1018,8 23 0 0,0
14.07.2018 04:00:00 16,5 14,1 15,7 18,1 21,6 19,3 32 17 39 21 WNW 1018,7 24 0 0,0
14.07.2018 03:00:00 17,0 14,3 16,0 18,1 21,9 19,3 30 16 42 23 WNW 1018,7 22 0 0,0
14.07.2018 02:00:00 17,0 14,7 16,0 18,5 22,3 19,3 33 18 41 22 WNW 1018,6 19 0 0,0
14.07.2018 01:00:00 17,4 14,4 16,5 19,1 22,6 19,3 36 19 44 24 WNW 1018,5 20 0 0,0
14.07.2018 00:00:00 18,2 15,0 17,0 19,8 23,0 19,3 35 19 47 25 WNW 1018,3 22 0 0,0
13.07.2018 23:00:00 18,7 15,1 17,7 20,7 23,4 19,3 35 19 45 24 WNW 1018,2 22 0 0,0
13.07.2018 22:00:00 19,3 16,1 18,5 22,1 23,7 19,3 31 17 40 22 WNW 1018,0 22 15 0,0
13.07.2018 21:00:00 20,0 16,9 19,6 24,3 23,9 19,3 25 14 29 16 WNW 1017,5 23 60 0,0
13.07.2018 20:00:00 20,9 16,7 21,7 27,1 23,9 19,3 21 11 29 16 WNW 1017,1 25 60 0,0
13.07.2018 19:00:00 21,8 15,4 23,7 29,4 23,7 19,3 19 10 27 14 NW 1016,9 28 60 0,0

tt = Température de l'air
td = dewpoint
tt 5cm = Température de l'air 5cm
tt -5cm = Température de l'air -5cm
tt -20cm = Température de l'air -20cm
tt -100cm = Température de l'air -100cm
ff = Vitesse du vent
fx = gusts
dd = Direction du vent
ppp = reduced air pressure
vv = visibility
sd = Ensoleillement
rr = Quantités de précipitations

stations d'obs. à proximité